Flag for Chile Weather past 2 weeks in Talcahuano, Chile

Now
50 °F

Mostly cloudy.


Feels Like: 50 °F
Forecast: 51 / 55 °F
Wind: 2 mph from Southeast

Location: Concepcion Airport

Current Time: Aug 23, 2014 at 4:02:32 AM

Latest Report: Aug 23, 2014 at 3:00 AM


Visibility: N/A

Pressure: 29.92 "Hg

Humidity: 100%

Dew point: 50 °F

Location of TalcahuanoLocation

Historic Weather in Talcahuano — Graph

°F

Talcahuano temperature yesterday

Maximum temperature yesterday: 54 °F (at 10:00 AM)
Minimum temperature yesterday: 48 °F (at 1:00 AM)
Average temperature yesterday: 52 °F

Past Weeks' High & Low Weather Summary

 TemperatureHumidityPressure
High68 °F (Aug 16, 2:00 PM)100% (Aug 9, 6:00 AM)30.48 "Hg (Aug 9, 6:00 AM)
Low36 °F (Aug 11, 6:00 AM)36% (Aug 13, 2:00 PM)29.89 "Hg (Aug 18, 2:00 PM)
Average50 °F81%30.11 "Hg
* Reported Aug 8 3:00 AM — Aug 23 3:00 AM, Talcahuano, Weather by CustomWeather, © 2014

Note: Actual official high and low records may vary slightly from our data, if they occured in-between our weather recording intervals... More about our weather records

Advertising

Talcahuano weather history for previous 24 hours

 ConditionsComfort  
Time TempWeatherWind HumidityBarometerVisibility
3:00 AM
Aug 23
50 °FMostly cloudy.2 mph100%29.92 "HgN/A
2:00 AM52 °FMostly cloudy.10 mph94%29.95 "HgN/A
1:00 AM52 °FSprinkles. Mostly cloudy.8 mph94%29.95 "HgN/A
12:00 AM54 °FMostly cloudy.13 mph88%29.98 "HgN/A
11:00 PM
Aug 22
52 °FMostly cloudy.15 mph94%29.98 "HgN/A
10:00 PM52 °FSprinkles. Mostly cloudy.18 mph94%29.98 "HgN/A
9:00 PM52 °FMostly cloudy.18 mph94%29.98 "HgN/A
8:00 PM54 °FMostly cloudy.18 mph88%29.98 "HgN/A
7:00 PM52 °FLight rain. Mostly cloudy.23 mph100%29.98 "Hg3 mi
6:00 PM54 °FMostly cloudy.22 mph88%29.98 "HgN/A
5:00 PM52 °FLight rain. Mostly cloudy.26 mph94%29.95 "Hg2 mi
4:00 PM54 °FMostly cloudy.21 mph88%29.95 "HgN/A
3:00 PM54 °FMostly cloudy.21 mph88%29.95 "HgN/A
2:00 PM54 °FSprinkles. Mostly cloudy.20 mph88%29.98 "Hg2 mi
1:00 PM54 °FOvercast.17 mph82%29.98 "HgN/A
12:00 PM54 °FOvercast.18 mph82%30.01 "HgN/A
11:00 AM54 °FOvercast.14 mph82%29.98 "HgN/A
10:00 AM54 °FOvercast.12 mph82%29.98 "HgN/A
9:00 AM52 °FOvercast.13 mph82%29.98 "HgN/A
8:00 AM52 °FOvercast.8 mph82%29.98 "HgN/A
7:00 AM50 °FOvercast.9 mph88%29.98 "HgN/A
6:00 AM50 °FOvercast.6 mph88%29.98 "HgN/A
5:00 AM50 °FOvercast.3 mph88%29.95 "HgN/A
4:00 AM50 °FOvercast.2 mph88%29.98 "HgN/A
Weather by CustomWeather, © 2014

See weather overviewHow to use our weather pages